IW7DVM-13 Weather Reports


Display with metric or nautical units.
time (UTC)temp
F
wind
direction
speed
MPH
gust
MPH
rain 1hr
in
rain 24hr
in
rain mn
in
humidity
%
barometer
mb
20260504050503 56 22 2.0 3.0 0.00 0.00 0.00 71 1013.6
20260504050003 56 22 0.0 2.0 0.00 0.00 0.00 71 1013.6
20260504045503 56 22 0.0 2.0 0.00 0.00 0.00 71 1013.5
20260504045003 55 22 1.0 2.0 0.00 0.00 0.00 71 1013.6
20260504044503 55 22 0.0 1.0 0.00 0.00 0.00 71 1013.5
20260504044003 54 22 0.0 1.0 0.00 0.00 0.00 72 1013.3
20260504043503 54 22 1.0 2.0 0.00 0.00 0.00 72 1013.4
20260504043003 54 22 0.0 2.0 0.00 0.00 0.00 71 1013.3
20260504042503 54 22 1.0 2.0 0.00 0.00 0.00 72 1013.2
20260504042003 53 22 2.0 3.0 0.00 0.00 0.00 72 1013.2
20260504041503 53 22 1.0 2.0 0.00 0.00 0.00 72 1013.2
20260504041003 53 22 1.0 2.0 0.00 0.00 0.00 72 1013.2
20260504040503 53 22 1.0 2.0 0.00 0.00 0.00 72 1013.2
20260504040003 53 22 1.0 2.0 0.00 0.00 0.00 72 1013.2
20260504035503 53 0 0.0 0.0 0.00 0.00 0.00 72 1013.2
20260504035003 53 0 0.0 0.0 0.00 0.00 0.00 72 1013.2
20260504034503 53 22 0.0 1.0 0.00 0.00 0.00 72 1013.1
20260504034003 53 22 0.0 2.0 0.00 0.00 0.00 72 1013.1
20260504033503 53 22 1.0 3.0 0.00 0.00 0.00 72 1013.0
20260504033003 53 22 1.0 3.0 0.00 0.00 0.00 72 1013.0
20260504032503 53 22 0.0 2.0 0.00 0.00 0.00 72 1013.0
20260504032003 53 22 0.0 1.0 0.00 0.00 0.00 72 1013.1
20260504031503 53 22 1.0 2.0 0.00 0.00 0.00 72 1013.0
20260504031003 53 22 1.0 2.0 0.00 0.00 0.00 72 1013.1
20260504030503 53 22 0.0 2.0 0.00 0.00 0.00 72 1012.9
20260504030003 53 15 1.0 3.0 0.00 0.00 0.00 72 1012.9
20260504025503 53 356 1.0 3.0 0.00 0.00 0.00 72 1012.9
20260504025003 53 15 1.0 3.0 0.00 0.00 0.00 72 1013.0
20260504024503 53 22 2.0 4.0 0.00 0.00 0.00 72 1012.9
20260504024003 53 17 1.0 3.0 0.00 0.00 0.00 72 1013.0
20260504023503 53 18 3.0 5.0 0.00 0.00 0.00 73 1013.0
20260504023003 54 19 3.0 6.0 0.00 0.00 0.00 72 1012.9
20260504022503 54 7 2.0 5.0 0.00 0.00 0.00 72 1013.0
20260504022003 54 24 1.0 3.0 0.00 0.00 0.00 72 1012.9
20260504021503 54 22 0.0 2.0 0.00 0.00 0.00 72 1012.9
20260504021003 54 0 0.0 0.0 0.00 0.00 0.00 72 1012.9
20260504020503 55 0 0.0 0.0 0.00 0.00 0.00 72 1012.9
20260504020003 55 0 0.0 0.0 0.00 0.00 0.00 72 1012.9
20260504015503 55 0 0.0 0.0 0.00 0.00 0.00 72 1012.9
20260504015003 55 0 0.0 0.0 0.00 0.00 0.00 72 1012.9
20260504014503 55 0 0.0 0.0 0.00 0.00 0.00 72 1012.9
20260504014003 55 0 0.0 0.0 0.00 0.00 0.00 72 1013.0
20260504013503 55 0 0.0 0.0 0.00 0.00 0.00 72 1012.9
20260504013003 55 0 0.0 0.0 0.00 0.00 0.00 72 1012.9
20260504012503 55 22 0.0 1.0 0.00 0.00 0.00 72 1013.0
20260504012003 55 22 0.0 1.0 0.00 0.00 0.00 72 1013.0
20260504011503 55 0 0.0 0.0 0.00 0.00 0.00 72 1013.0
20260504011003 55 0 0.0 0.0 0.00 0.00 0.00 72 1013.0
20260504010503 55 0 0.0 0.0 0.00 0.00 0.00 72 1013.1
20260504010003 55 0 0.0 0.0 0.00 0.00 0.00 72 1013.1
20260504005503 56 0 0.0 0.0 0.00 0.00 0.00 72 1013.2
20260504005004 56 22 0.0 2.0 0.00 0.00 0.00 72 1013.2
20260504004503 56 0 0.0 0.0 0.00 0.00 0.00 72 1013.2
20260504004003 56 0 0.0 0.0 0.00 0.00 0.00 72 1013.2
20260504003503 56 0 0.0 0.0 0.00 0.00 0.00 72 1013.1
20260504003003 56 0 0.0 0.0 0.00 0.00 0.00 72 1013.2
20260504002503 57 0 0.0 0.0 0.00 0.00 0.00 72 1013.1
20260504002003 57 0 0.0 0.0 0.00 0.00 0.00 72 1013.0
20260504001503 57 0 0.0 0.0 0.00 0.00 0.00 72 1013.1
20260504001003 57 22 0.0 1.0 0.00 0.00 0.00 72 1013.2
20260504000503 57 0 0.0 0.0 0.00 0.00 0.00 72 1013.0
20260504000003 57 22 0.0 1.0 0.00 0.00 0.00 72 1013.2
20260503235503 57 22 0.0 2.0 0.00 0.00 0.00 72 1013.2
20260503235003 57 0 0.0 0.0 0.00 0.00 0.00 71 1013.2
20260503234503 57 22 0.0 1.0 0.00 0.00 0.00 71 1013.2
20260503234003 57 22 0.0 1.0 0.00 0.00 0.00 71 1013.1
20260503233503 57 22 0.0 1.0 0.00 0.00 0.00 71 1013.2
20260503233003 57 0 0.0 0.0 0.00 0.00 0.00 71 1013.2
20260503232503 57 0 0.0 0.0 0.00 0.00 0.00 71 1013.2
20260503232003 57 0 0.0 0.0 0.00 0.00 0.00 71 1013.4
20260503231503 57 22 0.0 1.0 0.00 0.00 0.00 71 1013.4
20260503231003 58 22 0.0 1.0 0.00 0.00 0.00 71 1013.4
20260503230503 58 0 0.0 0.0 0.00 0.00 0.00 71 1013.5
20260503230003 58 22 0.0 1.0 0.00 0.00 0.00 71 1013.5
20260503225503 58 0 0.0 0.0 0.00 0.00 0.00 71 1013.5
20260503225003 58 22 0.0 1.0 0.00 0.00 0.00 71 1013.4
20260503224503 58 22 0.0 1.0 0.00 0.00 0.00 71 1013.4
20260503224003 58 0 0.0 0.0 0.00 0.00 0.00 71 1013.4
20260503223503 58 0 0.0 0.0 0.00 0.00 0.00 71 1013.6
20260503223003 59 0 0.0 0.0 0.00 0.00 0.00 70 1013.6
20260503222503 59 0 0.0 0.0 0.00 0.00 0.00 70 1013.6
20260503222003 59 0 0.0 0.0 0.00 0.00 0.00 70 1013.6
20260503221503 59 0 0.0 0.0 0.00 0.00 0.00 70 1013.4
20260503221003 59 22 0.0 1.0 0.00 0.00 0.00 70 1013.4
20260503220503 59 0 0.0 0.0 0.00 0.00 0.00 70 1013.3
20260503220003 59 0 0.0 0.0 0.00 0.00 0.00 70 1013.4
20260503215503 60 22 0.0 1.0 0.00 0.00 0.00 70 1013.4
20260503215003 60 0 0.0 0.0 0.00 0.00 0.00 70 1013.4
20260503214503 60 0 0.0 0.0 0.00 0.00 0.00 70 1013.4
20260503214003 60 0 0.0 0.0 0.00 0.00 0.00 70 1013.2
20260503213503 60 0 0.0 0.0 0.00 0.00 0.00 70 1013.2
20260503213003 60 22 0.0 1.0 0.00 0.00 0.00 70 1013.3
20260503212503 60 22 0.0 2.0 0.00 0.00 0.00 70 1013.2
20260503212003 61 22 1.0 2.0 0.00 0.00 0.00 70 1013.3
20260503211503 62 22 1.0 4.0 0.00 0.00 0.00 70 1013.3
20260503211003 62 7 1.0 4.0 0.00 0.00 0.00 70 1013.3
20260503210503 63 45 0.0 1.0 0.00 0.00 0.00 70 1013.3
20260503210003 63 195 1.0 3.0 0.00 0.00 0.00 70 1013.2
20260503205503 63 189 1.0 4.0 0.00 0.00 0.00 70 1013.1
20260503205003 63 215 0.0 4.0 0.00 0.00 0.00 70 1013.1
20260503204503 62 227 0.0 4.0 0.00 0.00 0.00 69 1013.0
20260503204003 62 45 0.0 4.0 0.00 0.00 0.00 69 1013.2
20260503203503 62 0 0.0 0.0 0.00 0.00 0.00 69 1013.1
20260503203003 62 0 0.0 0.0 0.00 0.00 0.00 69 1013.0
20260503202503 62 0 0.0 0.0 0.00 0.00 0.00 69 1013.1
20260503202003 62 0 0.0 0.0 0.00 0.00 0.00 69 1013.1
20260503201503 63 135 0.0 1.0 0.00 0.00 0.00 69 1013.2
20260503201003 63 0 0.0 0.0 0.00 0.00 0.00 69 1013.1
20260503200503 63 0 0.0 0.0 0.00 0.00 0.00 69 1013.2
20260503200003 63 191 0.0 2.0 0.00 0.00 0.00 69 1013.2
20260503195503 63 0 0.0 0.0 0.00 0.00 0.00 69 1013.2
20260503195003 63 157 0.0 1.0 0.00 0.00 0.00 69 1013.1
20260503194503 63 188 0.0 2.0 0.00 0.00 0.00 69 1013.1
20260503194003 63 181 0.0 3.0 0.00 0.00 0.00 69 1012.9
20260503193503 64 199 0.0 3.0 0.00 0.00 0.00 68 1013.0
20260503193003 64 188 1.0 5.0 0.00 0.00 0.00 68 1012.9
20260503192503 64 192 1.0 6.0 0.00 0.00 0.00 68 1012.8
20260503192003 64 202 1.0 4.0 0.00 0.00 0.00 68 1012.9
20260503191503 64 203 1.0 5.0 0.00 0.00 0.00 67 1012.9
20260503191003 64 220 1.0 4.0 0.00 0.00 0.00 67 1012.6
20260503190503 64 182 1.0 5.0 0.00 0.00 0.00 67 1012.6
20260503190003 64 200 1.0 4.0 0.00 0.00 0.00 67 1012.6
20260503185503 64 205 1.0 4.0 0.00 0.00 0.00 66 1012.5
20260503185003 64 214 0.0 4.0 0.00 0.00 0.00 66 1012.6
20260503184503 64 210 1.0 5.0 0.00 0.00 0.00 66 1012.6
20260503184003 64 189 0.0 3.0 0.00 0.00 0.00 66 1012.5
20260503183503 64 192 2.0 9.0 0.00 0.00 0.00 66 1012.3
20260503183003 64 204 4.0 9.0 0.00 0.00 0.00 66 1012.4
20260503182503 65 186 1.0 5.0 0.00 0.00 0.00 65 1012.2
20260503182003 65 200 1.0 6.0 0.00 0.00 0.00 64 1012.3
20260503181504 65 190 1.0 4.0 0.00 0.00 0.00 63 1012.3
20260503181003 65 195 3.0 8.0 0.00 0.00 0.00 63 1012.3
20260503180503 65 199 2.0 9.0 0.00 0.00 0.00 61 1012.2
20260503180003 66 195 3.0 7.0 0.00 0.00 0.00 59 1012.1
20260503175503 67 207 3.0 12.0 0.00 0.00 0.00 56 1012.0
20260503175003 69 190 2.0 8.0 0.00 0.00 0.00 47 1011.9
20260503174503 71 30 2.0 4.0 0.00 0.00 0.00 40 1011.8
20260503174003 71 14 2.0 4.0 0.00 0.00 0.00 39 1011.9
20260503173503 72 13 3.0 6.0 0.00 0.00 0.00 38 1011.8
20260503173003 72 7 3.0 7.0 0.00 0.00 0.00 38 1011.8
20260503172504 73 16 3.0 8.0 0.00 0.00 0.00 37 1011.7
20260503172003 73 16 4.0 9.0 0.00 0.00 0.00 37 1011.8
20260503171503 74 18 3.0 7.0 0.00 0.00 0.00 36 1011.8
20260503171003 74 17 4.0 9.0 0.00 0.00 0.00 35 1011.7
20260503170503 74 10 4.0 9.0 0.00 0.00 0.00 35 1011.7
20260503151003 77 14 9.0 16.0 0.00 0.00 0.00 34 1011.6
20260503150503 77 8 10.0 17.0 0.00 0.00 0.00 34 1011.7
20260503131003 77 360 8.0 16.0 0.00 0.00 0.00 36 1012.1
20260503130503 77 10 10.0 19.0 0.00 0.00 0.00 35 1012.1
20260503110503 76 18 12.0 20.0 0.00 0.00 0.00 34 1012.2
20260503090503 74 316 6.0 14.0 0.00 0.00 0.00 33 1012.6
20260503081503 72 304 3.0 9.0 0.00 0.00 0.00 41 1012.8
20260503081003 71 332 4.0 12.0 0.00 0.00 0.00 42 1012.7
20260503080503 70 324 3.0 13.0 0.00 0.00 0.00 46 1012.9
20260503072503 67 237 4.0 14.0 0.00 0.00 0.00 51 1013.0
20260503072003 66 251 3.0 10.0 0.00 0.00 0.00 50 1012.9
20260503071503 66 245 3.0 10.0 0.00 0.00 0.00 50 1013.0
20260503071003 66 247 4.0 11.0 0.00 0.00 0.00 50 1013.0
20260503070503 66 263 4.0 11.0 0.00 0.00 0.00 49 1013.0
20260503055003 60 271 3.0 10.0 0.00 0.00 0.00 53 1013.1
20260503054503 60 280 4.0 10.0 0.00 0.00 0.00 53 1013.1
20260503053503 60 272 2.0 7.0 0.00 0.00 0.00 54 1013.0
20260503053003 59 269 4.0 11.0 0.00 0.00 0.00 54 1013.0
20260503052503 59 268 3.0 6.0 0.00 0.00 0.00 55 1013.0
20260503052003 59 276 3.0 7.0 0.00 0.00 0.00 55 1012.8